Regional Weather Roundup
Issued by NWS

Home | Current Version | Previous Version | Graphics & Text | Print | Product List | Glossary Off
Versions: 1 2 3 4 5 6 7 8 9 10 11 12 13 14 15 16 17 18 19 20 21 22 23 24 25 26 27 28 29 30 31 32 33 34 35 36 37 38 39 40 41 42 43 44 45 46 47 48 49 50

000
ASUS43 KTOP 051759
RWRKS

WEATHER ROUNDUP FOR KANSAS
NATIONAL WEATHER SERVICE GOODLAND KS
1200 PM CST MON DEC 05 2016

NOTE:  "FAIR" INDICATES FEW OR NO CLOUDS BELOW 12,000 FEET WITH NO
SIGNIFICANT WEATHER AND/OR OBSTRUCTIONS TO VISIBILITY.

KSZ001>006-013>018-027>032-041>047-051900-
NORTHWEST KANSAS

CITY           SKY/WX    TMP DP  RH WIND       PRES   REMARKS
GOODLAND       SUNNY     60  17  18 NE12      29.56S
6HR MIN TEMP:  27; 6HR MAX TEMP:  60;

HAYS           SUNNY     49  32  52 S16G22    29.61F
HILL CITY      SUNNY     46  27  47 CALM      29.60S
6HR MIN TEMP:  36; 6HR MAX TEMP:  46;

RUSSELL        SUNNY     52  32  46 S29G35    29.60F
6HR MIN TEMP:  34; 6HR MAX TEMP:  52;

$$

KSZ061>065-074>080-084>089-051900-
SOUTHWEST KANSAS

CITY           SKY/WX    TMP DP  RH WIND       PRES   REMARKS
DODGE CITY     SUNNY     48  31  51 S28       29.61F
6HR MIN TEMP:  31; 6HR MAX TEMP:  48;

ELKHART          N/A     57  27  31 W5          N/A
GARDEN CITY    SUNNY     48  29  47 S15       29.58F
6HR MIN TEMP:  25; 6HR MAX TEMP:  48;

GREAT BEND     SUNNY     52  33  48 S28G35    29.63F
LIBERAL        SUNNY     50  32  50 S15       29.61F
$$

KSZ066>073-081>083-090>101-051900-
SOUTHEAST KANSAS

CITY           SKY/WX    TMP DP  RH WIND       PRES   REMARKS
CHANUTE        MOSUNNY   49  40  71 S15G24    29.85F
6HR MIN TEMP:  34; 6HR MAX TEMP:  50;

COFFEYVILLE    PTSUNNY   48  42  80 S16G22    29.88F
6HR MIN TEMP:  29; 6HR MAX TEMP:  48;

HUTCHINSON     SUNNY     50  34  54 S26G39    29.71F
6HR MIN TEMP:  28; 6HR MAX TEMP:  50;

NEWTON         SUNNY     49  37  63 S26       29.72F
PARSONS        MOSUNNY   49  41  74 S13       29.87F
6HR MIN TEMP:  30; 6HR MAX TEMP:  49;

WICHITA INTL   MOSUNNY   50  38  63 S25G31    29.74F
6HR MIN TEMP:  28; 6HR MAX TEMP:  50;

WICHITA JABRA  SUNNY     50  37  61 S24G30    29.74F
6HR MIN TEMP:  30; 6HR MAX TEMP:  50;

WINFIELD       SUNNY     51  37  58 S21G28    29.81F
6HR MIN TEMP:  32; 6HR MAX TEMP:  52;

$$

KSZ007>012-019>026-033>040-048>060-102>105-051900-
NORTHEAST KANSAS

CITY           SKY/WX    TMP DP  RH WIND       PRES   REMARKS
CONCORDIA      SUNNY     51  34  52 S25G37    29.64F
6HR MIN TEMP:  35; 6HR MAX TEMP:  51;

EMPORIA        SUNNY     45  40  82 S18G25    29.79F
6HR MIN TEMP:  28; 6HR MAX TEMP:  45;

LAWRENCE       MOSUNNY   46  40  79 S14       29.82F
6HR MIN TEMP:  28; 6HR MAX TEMP:  46;

MANHATTAN      SUNNY     52  34  50 S18G29    29.73F
6HR MIN TEMP:  27; 6HR MAX TEMP:  52;

OLATHE IND     MOSUNNY   44  40  85 S17       29.84F FOG
6HR MIN TEMP:  30; 6HR MAX TEMP:  44;

OLATHE EXE     MOSUNNY   45  39  79 S22G28    29.84F
6HR MIN TEMP:  31; 6HR MAX TEMP:  45;

SALINA         SUNNY     52  35  52 S25G35    29.69F
6HR MIN TEMP:  32; 6HR MAX TEMP:  52;

TOPEKA BILLARD MOSUNNY   47  40  76 S15       29.81F
6HR MIN TEMP:  29; 6HR MAX TEMP:  47;

TOPEKA FORBES  MOSUNNY   47  41  80 S17G23    29.80F
6HR MIN TEMP:  35; 6HR MAX TEMP:  47;

$$



USA.gov is the U.S. government's official web portal to all federal, state and local government web resources and services.